[[{"header":{"parameterUnit":"m.s-1","parameterCategory":1,"la1":30.2991,"la2":30.254,"lo1":-89.0895,"lo2":-89.0444,"dy":0.0017,"dx":0.0017,"nx":28,"ny":28,"refTime":"2025-08-21T09:00:00:Z","depth":0,"parameterNumber":2,"parameterNumberName":"U-component_of_WINDS"},"data":[0,0,0,0,0,0,0,0,0,0,0,0,0,0,0,0,0,0,0,0,0,0,0,0,0,0,0,0,0,0,0,0,0,0,0,0,0,0,0,0,0,0,0,0,0,0,0,0,0,0,0,0,0,0,0,0,0,0,-0.6201,-0.6199,0,-0.6,-0.5998,-0.5996,-0.5859,-0.5858,-0.5857,-0.5856,-0.564,-0.5635,-0.563,0,0,0,0,0,0,0,0,0,0,0,0,0,-0.6456,-0.6452,-0.6201,-0.6198,-0.6196,-0.6001,-0.5998,-0.5995,-0.5859,-0.5858,-0.5857,-0.5856,-0.5641,-0.5636,-0.563,0,0,0,0,0,0,0,0,0,0,0,0,0,-0.6309,-0.645,-0.6201,-0.6105,-0.6094,-0.6001,-0.5998,-0.5994,-0.5859,-0.5858,-0.5856,-0.5855,-0.5643,-0.5636,-0.5629,-0.5613,0,0,-0.5607,-0.5604,0,0,0,0,0,0,0,0,-0.6317,-0.63,-0.6121,-0.6111,-0.6099,-0.5953,-0.6008,-0.5866,-0.586,-0.5948,-0.5856,-0.5854,-0.5745,-0.5729,-0.5694,-0.5603,-0.5594,-0.5606,-0.5602,-0.5599,-0.5597,0,0,0,0,0,0,0,-0.6328,-0.6307,-0.6121,-0.6119,-0.6105,-0.6068,-0.6046,-0.5981,-0.5856,-0.594,-0.593,-0.5909,-0.5738,-0.5702,-0.5688,-0.5591,-0.5606,-0.56,-0.5595,-0.5593,-0.5475,-0.5476,0,0,0,0,0,0,-0.6355,-0.6317,-0.6127,-0.6115,-0.6207,-0.6065,-0.604,-0.6001,-0.5857,-0.5834,-0.591,-0.5903,-0.5715,-0.5697,-0.568,-0.5651,-0.5599,-0.5592,-0.5588,-0.5473,-0.5475,-0.5476,0,0,0,0,0,0,-0.6361,-0.6339,-0.6136,-0.6213,-0.6185,-0.6062,-0.602,-0.5998,-0.5962,-0.5834,-0.581,-0.5896,-0.5713,-0.569,-0.5631,-0.5642,-0.5589,-0.5582,-0.5472,-0.5474,-0.5475,-0.5594,0,0,0,0,0,0,-0.6369,-0.6342,-0.6337,-0.6214,-0.6181,-0.6094,-0.6021,-0.5995,-0.5951,-0.594,-0.5815,-0.5793,-0.571,-0.5643,-0.5624,-0.5631,-0.5576,-0.547,-0.5473,-0.5475,-0.5589,-0.56,-0.5609,0,0,0,0,0,-0.6378,-0.6376,-0.6338,-0.6316,-0.6173,-0.6095,-0.6075,-0.5983,-0.5952,-0.5944,-0.5863,-0.5797,-0.5644,-0.5638,-0.5616,-0.562,-0.5469,-0.5472,-0.5475,-0.5584,-0.5598,-0.5609,0,0,0,0,0,0,-0.65,-0.6358,-0.6314,-0.6273,-0.6198,-0.6072,-0.606,-0.6001,-0.5929,-0.5922,-0.5807,-0.578,-0.5732,-0.567,-0.5666,-0.5596,-0.5548,-0.5547,-0.5639,-0.5651,-0.5661,-0.5677,-0.557,0,0,0,0,0,-0.6523,-0.6475,-0.6352,-0.6328,-0.6293,-0.6184,-0.6146,-0.6082,-0.5997,-0.5963,-0.5877,-0.5795,-0.5727,-0.5686,-0.5617,-0.5579,-0.5549,-0.5571,-0.5581,-0.5591,-0.559,-0.5564,-0.5572,-0.5485,-0.5485,-0.5485,0,0,-0.6568,-0.6485,-0.6461,-0.635,-0.6284,-0.6234,-0.6157,-0.6107,-0.6067,-0.5954,-0.5895,-0.5829,-0.5728,-0.568,-0.5654,-0.5626,-0.5607,-0.5594,-0.5602,-0.5596,-0.5568,-0.5576,-0.5583,-0.5487,-0.5487,-0.5486,0,0,-0.6624,-0.6558,-0.653,-0.6466,-0.6369,-0.6296,-0.629,-0.6173,-0.6126,-0.6065,-0.5979,-0.5928,-0.5816,-0.5749,-0.5699,-0.5732,-0.5667,-0.5712,-0.5765,-0.5741,-0.5748,-0.5753,-0.5764,-0.5769,-0.5712,-0.5712,-0.5713,0,-0.6692,-0.6616,-0.6522,-0.6478,-0.6431,-0.6331,-0.63,-0.6241,-0.6125,-0.6093,-0.6065,-0.5922,-0.5847,-0.5781,-0.579,-0.5753,-0.574,-0.5725,-0.5755,-0.576,-0.5763,-0.5772,-0.5776,-0.5718,-0.5718,-0.5717,-0.5717,0,-0.6703,-0.6652,-0.6641,-0.6536,-0.6487,-0.645,-0.6347,-0.6309,-0.6249,-0.6179,-0.6116,-0.6024,-0.5935,-0.5914,-0.5854,-0.5839,-0.5825,-0.5778,-0.5727,-0.5779,-0.5785,-0.5788,-0.5727,-0.5725,-0.5723,-0.5722,0,0,-0.683,-0.6675,-0.6672,-0.6623,-0.6508,-0.6465,-0.6422,-0.6338,-0.6307,-0.623,-0.6189,-0.6097,-0.6053,-0.5997,-0.5928,-0.5907,-0.5937,-0.5861,-0.5857,-0.5878,-0.5913,-0.5949,-0.5955,-0.5894,-0.5895,-0.5895,-0.5921,0,-0.6868,-0.6791,-0.6705,-0.6655,-0.6605,-0.6509,-0.6471,-0.6395,-0.6328,-0.6273,-0.6197,-0.6134,-0.6081,-0.6047,-0.6022,-0.5939,-0.5942,-0.5936,-0.5852,-0.585,-0.588,-0.5958,-0.5995,-0.6025,-0.5923,-0.5923,-0.5924,0,-0.6902,-0.6835,-0.6782,-0.6672,-0.6647,-0.6616,-0.6532,-0.6482,-0.6392,-0.6345,-0.6284,-0.6211,-0.6157,-0.6114,-0.6037,-0.6035,-0.5995,-0.5949,-0.5948,-0.5935,-0.589,-0.5946,-0.6032,-0.6036,-0.5926,-0.5926,-0.5926,0,-0.6999,-0.6894,-0.6848,-0.6809,-0.668,-0.666,-0.6604,-0.6514,-0.6469,-0.6395,-0.6364,-0.6283,-0.6239,-0.6176,-0.6082,-0.6059,-0.6014,-0.5963,-0.597,-0.5973,-0.5964,-0.5966,-0.6044,-0.5941,-0.5941,-0.5941,-0.5941,0,-0.7051,-0.7021,-0.689,-0.6862,-0.6826,-0.6727,-0.6692,-0.6627,-0.6548,-0.6503,-0.6413,-0.6372,-0.6251,-0.6194,-0.612,-0.6067,-0.6047,-0.6004,-0.5985,-0.6012,-0.6017,-0.5983,-0.5978,-0.5942,-0.5942,-0.5942,-0.5941,0,-0.7152,-0.7064,-0.7007,-0.6891,-0.6861,-0.6839,-0.6738,-0.6705,-0.6634,-0.6578,-0.6558,-0.6445,-0.6374,-0.6275,-0.6171,-0.6121,-0.6077,-0.6047,-0.6109,-0.6097,-0.611,-0.611,-0.6168,-0.617,-0.6068,-0.607,-0.607,0,-0.719,-0.7166,-0.7049,-0.7014,-0.6963,-0.6908,-0.6863,-0.6764,-0.672,-0.6617,-0.6596,-0.6519,-0.6451,-0.6341,-0.6247,-0.6167,-0.6133,-0.6159,-0.612,-0.6148,-0.6132,-0.6134,-0.613,-0.6168,-0.617,-0.6171,-0.6172,0,-0.7267,-0.7225,-0.7166,-0.7092,-0.7042,-0.6977,-0.6908,-0.6884,-0.6769,-0.6723,-0.6652,-0.66,-0.6497,-0.642,-0.6329,-0.6266,-0.6199,-0.6186,-0.6183,-0.621,-0.6247,-0.6226,-0.6134,-0.6184,-0.6183,-0.6182,-0.6182,-0.6181,-0.7336,-0.731,-0.7225,-0.7161,-0.71,-0.7038,-0.7002,-0.6928,-0.6868,-0.6779,-0.6723,-0.6653,-0.6562,-0.6433,-0.6374,-0.6316,-0.6288,-0.6285,-0.6283,-0.6284,-0.6293,-0.6258,-0.6298,-0.6298,-0.6297,-0.6297,-0.6297,0,-0.7407,-0.7348,-0.7291,-0.72,-0.715,-0.7096,-0.7016,-0.6977,-0.6919,-0.6842,-0.6779,-0.6696,-0.6621,-0.6522,-0.644,-0.6412,-0.6379,-0.6393,-0.6393,-0.638,-0.6322,-0.6333,-0.6421,-0.6421,-0.6421,-0.6421,-0.6421,-0.6421,-0.7438,-0.7392,-0.734,-0.7261,-0.72,-0.7135,-0.7095,-0.7036,-0.6974,-0.6887,-0.6826,-0.6764,-0.6677,-0.6588,-0.6516,-0.6488,-0.6461,-0.6485,-0.6448,-0.6395,-0.6384,-0.6373,-0.6382,-0.648,-0.648,-0.651,-0.651,-0.651]},{"header":{"parameterUnit":"m.s-1","parameterCategory":1,"la1":30.2991,"la2":30.254,"lo1":-89.0895,"lo2":-89.0444,"dy":0.0017,"dx":0.0017,"nx":28,"ny":28,"refTime":"2025-08-21T09:00:00:Z","depth":0,"parameterNumber":3,"parameterNumberName":"V-component_of_WINDS"},"data":[0,0,0,0,0,0,0,0,0,0,0,0,0,0,0,0,0,0,0,0,0,0,0,0,0,0,0,0,0,0,0,0,0,0,0,0,0,0,0,0,0,0,0,0,0,0,0,0,0,0,0,0,0,0,0,0,0,0,-0.8063,-0.8064,0,-0.8138,-0.8139,-0.814,-0.8143,-0.8142,-0.8141,-0.814,-0.8222,-0.8225,-0.8228,0,0,0,0,0,0,0,0,0,0,0,0,0,-0.7928,-0.7931,-0.8063,-0.8064,-0.8065,-0.8138,-0.8139,-0.814,-0.8143,-0.8142,-0.8141,-0.814,-0.8221,-0.8224,-0.8228,0,0,0,0,0,0,0,0,0,0,0,0,0,-0.7994,-0.7931,-0.8063,-0.8075,-0.8077,-0.8138,-0.8139,-0.8141,-0.8143,-0.8142,-0.8141,-0.8139,-0.8219,-0.8224,-0.8228,-0.8284,0,0,-0.8242,-0.8244,0,0,0,0,0,0,0,0,-0.799,-0.7999,-0.8072,-0.8074,-0.8077,-0.813,-0.8122,-0.8189,-0.8144,-0.8118,-0.814,-0.8139,-0.8192,-0.8199,-0.8216,-0.8287,-0.8291,-0.8242,-0.8245,-0.8247,-0.8248,0,0,0,0,0,0,0,-0.7985,-0.7995,-0.8093,-0.8074,-0.8076,-0.8079,-0.8087,-0.8134,-0.8162,-0.812,-0.8121,-0.8129,-0.8193,-0.8212,-0.8218,-0.8292,-0.8242,-0.8246,-0.8249,-0.8251,-0.8416,-0.8418,0,0,0,0,0,0,-0.7978,-0.7992,-0.8091,-0.8095,-0.8029,-0.8083,-0.8091,-0.8114,-0.8162,-0.8168,-0.8131,-0.8129,-0.8205,-0.8213,-0.8221,-0.8291,-0.8247,-0.8251,-0.8254,-0.8414,-0.8416,-0.8418,0,0,0,0,0,0,-0.7975,-0.7986,-0.8088,-0.8044,-0.8057,-0.8086,-0.8112,-0.8116,-0.8135,-0.8169,-0.8175,-0.8144,-0.8204,-0.8215,-0.8269,-0.8294,-0.8253,-0.8258,-0.8412,-0.8415,-0.8417,-0.8429,0,0,0,0,0,0,-0.7971,-0.7985,-0.8005,-0.8044,-0.8059,-0.8132,-0.8114,-0.8119,-0.8142,-0.8141,-0.8183,-0.8189,-0.8204,-0.8262,-0.8273,-0.8299,-0.8261,-0.841,-0.8414,-0.8417,-0.8427,-0.8432,-0.8436,0,0,0,0,0,-0.7966,-0.8006,-0.8006,-0.8018,-0.8084,-0.8133,-0.8142,-0.8157,-0.8144,-0.8165,-0.8188,-0.8188,-0.8289,-0.8267,-0.828,-0.8308,-0.8409,-0.8413,-0.8416,-0.8425,-0.8431,-0.8436,0,0,0,0,0,0,-0.7969,-0.8011,-0.8011,-0.8064,-0.8095,-0.8133,-0.816,-0.8163,-0.8198,-0.8196,-0.8215,-0.8224,-0.8278,-0.8299,-0.8273,-0.8366,-0.8348,-0.8354,-0.835,-0.8356,-0.8361,-0.8355,-0.8265,0,0,0,0,0,-0.7976,-0.8011,-0.8046,-0.8089,-0.8105,-0.813,-0.8152,-0.8161,-0.8194,-0.8207,-0.8234,-0.8268,-0.8307,-0.8333,-0.8371,-0.843,-0.8441,-0.8456,-0.8461,-0.8465,-0.847,-0.8506,-0.8514,-0.8431,-0.8431,-0.843,0,0,-0.799,-0.8017,-0.8038,-0.8091,-0.8116,-0.8154,-0.8141,-0.8181,-0.821,-0.8214,-0.8266,-0.8287,-0.8326,-0.8384,-0.841,-0.8402,-0.8496,-0.847,-0.8472,-0.8476,-0.851,-0.8518,-0.8525,-0.8433,-0.8433,-0.8432,0,0,-0.8036,-0.8059,-0.8099,-0.8125,-0.8162,-0.8179,-0.8189,-0.8228,-0.8242,-0.8294,-0.8299,-0.8335,-0.8403,-0.8431,-0.8454,-0.8515,-0.8517,-0.8527,-0.8551,-0.8586,-0.8593,-0.8599,-0.8622,-0.863,-0.8532,-0.8532,-0.8532,0,-0.8049,-0.8104,-0.8119,-0.816,-0.8184,-0.819,-0.8232,-0.8256,-0.8305,-0.8323,-0.8313,-0.84,-0.8426,-0.8492,-0.8507,-0.8525,-0.8538,-0.8522,-0.859,-0.8596,-0.8602,-0.8625,-0.8633,-0.8533,-0.8533,-0.8533,-0.8533,0,-0.812,-0.8159,-0.8187,-0.8233,-0.8261,-0.8302,-0.8326,-0.8352,-0.836,-0.8379,-0.8435,-0.8467,-0.8513,-0.853,-0.8538,-0.8597,-0.8591,-0.8586,-0.8568,-0.8611,-0.8632,-0.8641,-0.8535,-0.8534,-0.8534,-0.8534,0,0,-0.8167,-0.8224,-0.8234,-0.8256,-0.83,-0.8331,-0.8374,-0.8419,-0.8442,-0.8477,-0.8515,-0.8573,-0.8569,-0.8596,-0.8608,-0.8638,-0.8687,-0.8629,-0.8631,-0.864,-0.8757,-0.8761,-0.877,-0.8689,-0.869,-0.8692,-0.8754,0,-0.8218,-0.8293,-0.8309,-0.8374,-0.8412,-0.842,-0.8458,-0.849,-0.851,-0.8547,-0.8569,-0.8611,-0.8602,-0.8618,-0.8648,-0.8674,-0.871,-0.867,-0.8726,-0.8728,-0.8716,-0.8781,-0.8785,-0.8842,-0.8763,-0.8764,-0.8765,0,-0.8287,-0.8323,-0.8391,-0.8433,-0.8449,-0.8483,-0.8526,-0.8561,-0.8599,-0.8612,-0.8643,-0.8653,-0.8701,-0.8682,-0.875,-0.8722,-0.8746,-0.8763,-0.8766,-0.8771,-0.8749,-0.879,-0.8861,-0.887,-0.8778,-0.8777,-0.8776,0,-0.8316,-0.8382,-0.8432,-0.8451,-0.85,-0.8524,-0.8546,-0.8583,-0.861,-0.8649,-0.8667,-0.8712,-0.8736,-0.8772,-0.8795,-0.8778,-0.8862,-0.8844,-0.8876,-0.8875,-0.8892,-0.8891,-0.8969,-0.8908,-0.8908,-0.8907,-0.8907,0,-0.8371,-0.8413,-0.8446,-0.8476,-0.8525,-0.8545,-0.8594,-0.8616,-0.865,-0.8687,-0.8698,-0.8733,-0.876,-0.8801,-0.8819,-0.8874,-0.8885,-0.8898,-0.8903,-0.8897,-0.8896,-0.8913,-0.891,-0.891,-0.8909,-0.8909,-0.8908,0,-0.841,-0.8434,-0.8489,-0.8532,-0.8544,-0.8578,-0.8616,-0.8648,-0.8669,-0.8717,-0.873,-0.8764,-0.8812,-0.8838,-0.8898,-0.8911,-0.8973,-0.8975,-0.8959,-0.8961,-0.8992,-0.8989,-0.9084,-0.9099,-0.9027,-0.9028,-0.9029,0,-0.8443,-0.8476,-0.8523,-0.8548,-0.8571,-0.8611,-0.8639,-0.8661,-0.869,-0.8739,-0.8765,-0.8814,-0.8854,-0.8931,-0.8963,-0.901,-0.9014,-0.9044,-0.9021,-0.9016,-0.9016,-0.9014,-0.9018,-0.9048,-0.9049,-0.9049,-0.905,0,-0.85,-0.8511,-0.855,-0.8593,-0.8626,-0.8662,-0.8697,-0.8718,-0.8747,-0.878,-0.8829,-0.886,-0.8923,-0.8972,-0.9022,-0.9048,-0.9055,-0.9057,-0.9067,-0.9062,-0.9052,-0.9059,-0.8971,-0.9054,-0.9054,-0.9053,-0.9053,-0.9053,-0.8538,-0.8569,-0.8607,-0.8651,-0.868,-0.8714,-0.8747,-0.8773,-0.8813,-0.8865,-0.8877,-0.8929,-0.8971,-0.9039,-0.9067,-0.911,-0.9104,-0.9118,-0.9122,-0.9125,-0.9127,-0.9045,-0.9119,-0.9119,-0.9119,-0.9119,-0.9119,0,-0.8597,-0.8622,-0.8662,-0.8712,-0.8747,-0.875,-0.8791,-0.8821,-0.8866,-0.8904,-0.8943,-0.9002,-0.905,-0.9087,-0.9137,-0.9165,-0.917,-0.9178,-0.9176,-0.9183,-0.9129,-0.9115,-0.9173,-0.9173,-0.9173,-0.9173,-0.9173,-0.9173,-0.8631,-0.8683,-0.8699,-0.8768,-0.8794,-0.8844,-0.8867,-0.89,-0.893,-0.8994,-0.9035,-0.9058,-0.9096,-0.915,-0.9196,-0.9206,-0.9225,-0.9233,-0.9243,-0.9192,-0.9186,-0.918,-0.9168,-0.9236,-0.9236,-0.9293,-0.9294,-0.9294]}]]